Kenai, AK

4:40 AM AKST on December 08, 2019 (GMT -0900)
Kenai Municipal

Weather History for PAEN - October, 2019

Change the Weather History Date:

Wednesday, October 9, 2019

  Actual Average Record
Temperature  
Mean Temperature 46 °F -  
Max Temperature 48 °F 44 °F 63 °F (2006)
Min Temperature 44 °F 30 °F 17 °F (1955)
Degree Days  
Heating Degree Days 19    
Moisture  
Dew Point 44 °F    
Average Humidity 94    
Maximum Humidity 100    
Minimum Humidity 86    
Precipitation  
Precipitation 0.79 in - - ()
Sea Level Pressure  
Sea Level Pressure 29.97 in    
Wind  
Wind Speed 7 mph (ESE)    
Max Wind Speed 9 mph    
Max Gust Speed -    
Visibility 8 miles    
Events Rain    
Averages and records for this station are not official NWS values.
T = Trace of Precipitation, MM = Missing Value Source: NWS Daily Summary

Daily Weather History Graph

Daily Weather History Graph

Search for Another Location

Airport or City:

Astronomy

Oct. 09, 2019 Rise Set
Actual Time 8:30 AM AKDT 7:12 PM AKDT
Civil Twilight 7:48 AM AKDT 7:54 PM AKDT
Nautical Twilight 6:59 AM AKDT 8:43 PM AKDT
Astronomical Twilight 6:08 AM AKDT 9:34 PM AKDT
Moon 7:06 PM AKDT (10/9) 2:57 AM AKDT (10/9)
Length of Visible Light 12h 06m
Length of Day
10h 41m
Waxing Gibbous, 86% of the Moon is Illuminated
Oct 9
Waxing Gibbous
Oct 13
Full
Oct 21
Last Quarter
Oct 27
New
Nov 4
First Quarter

Hourly Weather History & Observations

Time (AKDT) Temp. Windchill Dew Point Humidity Pressure Visibility Wind Dir Wind Speed Gust Speed Precip Events Conditions
12:39 AM 44.1 °F 39.5 °F 41.0 °F 89% 30.11 in 9.0 mi SE 8.1 mph - 0.03 in Rain Light Rain
12:53 AM 44.1 °F 39.5 °F 41.0 °F 89% 30.12 in 10.0 mi ESE 8.1 mph - 0.04 in Rain Light Rain
1:09 AM 44.1 °F 40.1 °F 41.0 °F 89% 30.11 in 9.0 mi SE 6.9 mph - 0.00 in Rain Light Rain
1:53 AM 44.1 °F 39.5 °F 41.0 °F 89% 30.12 in 10.0 mi SE 8.1 mph - 0.04 in Rain Light Rain
2:53 AM 44.1 °F 39.0 °F 41.0 °F 89% 30.10 in 10.0 mi SE 9.2 mph - 0.02 in Rain Light Rain
3:53 AM 44.1 °F 39.0 °F 41.0 °F 89% 30.09 in 10.0 mi ESE 9.2 mph - 0.02 in Rain Light Rain
4:53 AM 44.6 °F 39.7 °F 41.0 °F 87% 30.06 in 10.0 mi ESE 9.2 mph - N/A Rain Light Rain
5:53 AM 44.1 °F 39.0 °F 41.0 °F 89% 30.05 in 10.0 mi SE 9.2 mph - 0.01 in Rain Light Rain
6:53 AM 44.1 °F 40.8 °F 41.0 °F 89% 30.05 in 10.0 mi SE 5.8 mph - 0.02 in Rain Light Rain
7:05 AM 44.1 °F 40.1 °F 41.0 °F 89% 30.03 in 10.0 mi SE 6.9 mph - 0.01 in Rain Light Rain
7:17 AM 44.6 °F 40.7 °F 41.0 °F 87% 30.03 in 10.0 mi ESE 6.9 mph - N/A Rain Light Rain
9:53 AM 45.0 °F 41.8 °F 41.0 °F 86% 30.02 in 10.0 mi ESE 5.8 mph - 0.01 in Rain Light Rain
10:53 AM 45.0 °F 41.2 °F 42.1 °F 90% 30.01 in 10.0 mi SE 6.9 mph - 0.00 in   Overcast
11:53 AM 45.0 °F 41.8 °F 42.1 °F 90% 30.02 in 10.0 mi ESE 5.8 mph - 0.04 in Rain Light Rain
12:02 PM 45.0 °F 42.6 °F 44.1 °F 97% 30.01 in 10.0 mi SE 4.6 mph - 0.00 in Rain Light Rain
12:40 PM 46.0 °F 41.9 °F 45.0 °F 96% 30.00 in 7.0 mi ESE 8.1 mph - 0.03 in Rain Light Rain
12:53 PM 46.0 °F 41.4 °F 45.0 °F 96% 30.01 in 8.0 mi ESE 9.2 mph - 0.04 in Rain Light Rain
1:53 PM 48.0 °F - 46.0 °F 93% 29.99 in 10.0 mi ESE 6.9 mph - 0.00 in   Overcast
2:53 PM 48.0 °F - 44.1 °F 86% 29.97 in 8.0 mi SE 6.9 mph - 0.01 in Rain Light Rain
3:53 PM 48.0 °F - 45.0 °F 89% 29.95 in 5.0 mi ESE 4.6 mph - 0.06 in Rain Light Rain
4:53 PM 48.0 °F - 46.9 °F 96% 29.93 in 6.0 mi East 4.6 mph - 0.05 in Rain Light Rain
5:53 PM 46.9 °F - 46.0 °F 97% 29.92 in 6.0 mi ESE 4.6 mph - 0.05 in Rain Light Rain
6:51 PM 46.4 °F 43.5 °F 46.4 °F 100% 29.90 in 7.0 mi SE 5.8 mph - 0.07 in Rain Light Rain
6:53 PM 46.9 °F - 46.0 °F 97% 29.91 in 7.0 mi SE 4.6 mph - 0.07 in Rain Light Rain
7:53 PM 46.9 °F - 46.9 °F 100% 29.90 in 7.0 mi SE 3.5 mph - 0.08 in Rain Light Rain
8:45 PM 46.0 °F 44.8 °F 46.0 °F 100% 29.89 in 4.0 mi SSW 3.5 mph - 0.10 in Rain Rain
8:50 PM 46.4 °F - 46.4 °F 100% 29.88 in 4.0 mi Calm Calm - 0.11 in Rain Rain
8:53 PM 46.0 °F 44.8 °F 46.0 °F 100% 29.89 in 6.0 mi North 3.5 mph - 0.12 in Rain Rain
9:18 PM 46.9 °F - 46.9 °F 100% 29.88 in 5.0 mi Calm Calm - 0.05 in Rain Rain
9:53 PM 46.0 °F 43.9 °F 46.0 °F 100% 29.88 in 10.0 mi ESE 4.6 mph - 0.09 in Rain Light Rain
10:42 PM 46.0 °F 43.9 °F 45.0 °F 96% 29.86 in 10.0 mi East 4.6 mph - 0.02 in Rain Light Rain
10:51 PM 46.4 °F 44.3 °F 46.4 °F 100% 29.86 in 10.0 mi East 4.6 mph - 0.02 in Rain Light Rain
10:53 PM 46.0 °F 43.1 °F 45.0 °F 96% 29.87 in 10.0 mi East 5.8 mph - 0.02 in Rain Light Rain
11:16 PM 46.4 °F 44.3 °F 46.4 °F 100% 29.86 in 6.0 mi East 4.6 mph - N/A Rain Light Rain
11:30 PM 46.0 °F 44.8 °F 46.0 °F 100% 29.85 in 7.0 mi ESE 3.5 mph - 0.02 in Rain Light Rain
11:42 PM 46.0 °F 41.4 °F 46.0 °F 100% 29.85 in 5.0 mi SSE 9.2 mph - 0.02 in Rain Light Rain
11:50 PM 46.4 °F 42.4 °F 46.4 °F 100% 29.85 in 8.0 mi South 8.1 mph - 0.02 in Rain Light Rain
11:53 PM 46.4 °F 42.4 °F 46.4 °F 100% 29.85 in 8.0 mi South 8.1 mph - N/A Rain Light Rain